RH
94 97 95 96 97 98 98 97 96 96 95 95 95 95 95 93 92 93 94 95 94 94 96 95 94 93 92 95 95 93 82 82
97 98 98 99 98 99 98 98 98 98 97 96 97 97 96 94 94 94 94 94 94 94 96 96 96 96 94 95 95 95 92 83
96 98 98 99 98 97 99 98 98 98 97 97 100 99 98 96 95 94 94 94 94 94 97 97 97 97 96 96 96 98 94 90
85 95 97 98 90 98 99 94 88 95 93 95 98 96 96 96 97 95 95 95 95 95 96 97 98 95 99 97 99 98 95 88
82 87 92 89 94 99 100 98 96 98 97 97 98 93 96 98 99 98 98 96 97 97 97 98 98 88 90 99 98 98 98 86
67 84 91 92 93 97 99 99 100 100 98 97 99 99 94 97 99 98 98 98 96 98 98 97 98 92 96 98 98 98 98 90
58 62 80 88 89 94 94 98 98 98 97 96 97 96 94 98 98 98 98 97 92 95 97 96 97 95 97 97 97 96 95 94
55 52 71 78 82 83 89 94 96 97 97 96 97 99 99 99 99 98 98 98 96 97 96 96 95 95 96 95 93 91 92 96
46 54 55 55 88 84 80 80 88 89 89 89 92 96 98 99 99 99 98 98 97 97 97 98 98 97 92 92 91 91 89 95
49 49 58 57 64 69 74 76 80 89 91 92 87 87 89 93 97 99 99 99 99 98 98 98 98 97 96 92 92 92 94 95
50 52 58 59 64 67 73 80 81 87 92 93 90 89 89 94 95 95 95 97 99 98 98 99 98 97 97 96 95 94 97 95
50 51 61 61 67 66 66 63 83 87 91 81 82 84 88 95 96 95 96 95 94 97 98 96 97 96 96 96 96 96 97 97
51 53 62 64 66 70 67 74 78 83 83 79 80 80 80 85 91 92 96 97 94 92 92 97 98 96 98 98 96 96 96 97
50 51 55 60 66 70 76 77 79 81 84 81 80 81 82 76 82 84 88 95 95 94 91 91 91 96 97 96 100 99 99 96
48 51 52 59 62 70 67 68 68 73 76 80 84 81 83 83 81 84 86 93 95 96 97 95 93 90 96 96 100 96 100 99
48 50 50 54 60 66 67 73 73 79 81 63 61 77 79 83 81 86 87 91 96 96 95 98 97 94 92 96 96 99 99 100
52 49 48 53 54 65 75 77 82 79 67 64 66 78 80 76 78 87 88 88 92 97 96 96 98 97 94 91 91 96 100 100
50 44 44 54 61 68 73 77 78 70 68 73 70 75 81 76 78 85 87 91 96 96 96 95 97 96 96 95 94 95 92 94
51 50 58 70 76 77 78 77 74 78 78 79 78 76 82 79 78 86 92 95 93 96 95 94 94 95 97 94 96 96 96 94
57 60 75 79 78 79 81 81 86 88 88 87 86 89 82 75 78 90 94 92 93 95 96 96 96 97 96 94 95 96 95 95
Wind_Speed
9 8 8 9 9 8 7 6 7 8 9 9 10 9 9 10 11 12 11 10 10 11 11 12 12 11 10 8 8 7 5 5
6 4 3 3 4 7 7 7 6 7 8 8 7 7 9 10 10 10 11 12 12 11 11 11 11 11 11 9 8 8 5 5
3 5 6 5 5 6 7 8 8 8 7 8 5 4 5 7 9 12 14 14 12 12 11 11 11 11 11 9 7 3 5 3
4 3 3 5 3 5 7 7 7 6 6 6 5 6 4 5 7 12 13 12 12 12 13 12 10 6 5 9 4 5 4 4
11 10 4 2 3 2 2 3 4 4 7 6 5 5 5 5 5 5 6 10 6 8 8 7 9 9 8 6 5 5 4 4
12 10 9 7 5 1 3 2 3 3 5 6 5 4 7 7 6 6 6 6 8 7 6 8 9 11 9 9 7 6 4 4
11 12 11 10 11 7 4 2 2 3 3 3 5 7 7 6 7 6 7 6 8 9 9 8 10 11 9 10 10 9 6 5
8 12 9 9 9 10 7 6 6 5 6 7 7 4 4 4 4 4 5 6 9 10 11 10 10 10 11 11 12 10 10 9
8 8 8 10 8 7 7 8 7 7 6 9 7 6 6 5 3 4 5 6 11 10 8 7 8 9 14 11 11 13 11 10
9 8 8 9 8 8 7 7 6 5 5 4 8 8 8 8 7 5 5 5 7 8 9 8 10 12 11 12 11 12 11 11
9 9 8 8 7 5 6 7 7 7 7 6 7 6 7 6 4 5 8 7 6 8 9 9 9 10 11 10 10 11 11 9
8 7 8 7 5 5 5 5 5 6 7 9 11 9 8 5 5 6 5 6 8 8 11 10 11 12 10 12 11 10 9 11
7 9 6 6 5 4 5 5 5 5 6 9 10 11 12 12 8 8 5 4 7 9 8 13 10 11 10 10 12 15 15 13
7 8 8 6 4 3 3 2 2 1 3 5 7 8 9 10 11 10 10 8 6 6 7 6 9 10 10 8 6 6 6 14
6 8 7 6 5 2 0 1 2 3 3 3 3 6 7 8 11 10 11 10 8 6 6 5 7 7 13 9 4 10 4 2
6 7 5 3 4 4 5 3 4 3 3 7 8 6 6 6 10 9 11 10 11 7 5 5 5 10 7 5 13 3 6 4
5 4 3 1 5 5 4 4 2 3 7 11 10 6 6 8 11 9 9 9 9 7 8 7 5 7 7 5 7 10 4 1
5 3 6 9 9 10 9 8 8 9 11 9 9 7 4 7 9 10 10 9 5 6 6 9 10 9 6 4 4 5 8 9
3 3 6 6 7 7 7 7 10 11 12 10 12 9 7 9 11 11 10 7 6 5 5 5 7 10 11 8 5 7 5 7
5 7 7 7 7 7 6 6 5 6 7 8 8 6 8 11 10 8 9 9 7 6 4 4 6 5 9 13 7 6 6 8
Wind_Direction
155 163 173 174 174 174 172 177 186 192 196 198 196 193 190 190 186 188 185 190 191 183 181 185 190 197 212 186 189 162 141 160
94 98 126 154 170 177 172 173 186 205 208 210 207 208 202 196 194 193 193 200 199 193 190 194 196 202 211 209 198 165 175 171
141 155 167 174 171 188 176 186 190 197 211 219 213 221 216 213 204 201 201 204 202 197 197 196 201 210 215 220 205 180 183 199
42 186 206 175 194 186 182 187 199 193 193 193 201 211 206 223 221 217 214 210 206 202 201 198 196 212 225 225 210 197 179 187
35 34 54 359 217 217 239 191 197 205 191 192 190 199 203 209 216 222 222 217 215 208 208 207 202 210 218 218 208 194 193 194
35 29 32 16 2 179 224 208 188 212 215 191 184 207 223 220 217 214 211 208 211 212 215 210 205 212 212 212 210 201 196 206
39 31 28 23 29 19 28 9 342 318 320 253 215 214 225 225 224 213 211 202 210 214 215 213 213 214 215 209 211 210 202 192
42 39 32 33 34 34 33 31 10 18 45 26 8 337 293 269 261 242 224 210 210 213 213 213 218 217 217 215 214 210 206 191
57 53 32 36 36 31 34 38 30 22 13 16 10 9 347 327 326 289 263 236 216 226 226 228 226 215 224 218 221 218 203 192
57 51 40 34 28 30 31 33 26 13 22 -0 14 9 7 358 344 320 284 256 244 234 226 220 225 234 231 227 217 213 203 191
59 52 43 38 34 31 29 24 17 6 13 18 4 359 353 356 345 328 331 308 268 250 233 220 219 224 234 237 231 216 197 188
84 62 49 41 31 23 33 25 18 15 16 4 359 354 350 336 317 320 328 323 312 286 254 234 222 216 216 228 226 223 207 193
57 64 52 50 31 12 23 17 10 4 7 355 357 352 346 341 331 321 305 302 299 306 301 267 240 228 225 223 224 218 213 203
61 59 52 39 41 30 31 354 344 323 349 345 349 338 333 332 321 315 309 294 287 291 309 315 305 239 237 219 230 230 253 211
80 75 62 51 54 61 331 236 356 18 343 323 306 312 311 310 314 313 311 299 282 276 276 280 296 287 284 241 213 218 143 240
77 84 82 77 48 59 54 38 356 318 306 322 326 309 307 318 320 323 325 311 294 274 280 273 284 295 326 280 287 270 193 155
102 99 77 83 50 68 61 21 299 292 319 320 316 301 318 325 314 313 313 312 300 288 299 292 272 273 286 296 334 328 330 242
76 53 16 26 31 25 21 1 336 329 322 314 311 307 307 309 305 305 307 298 302 312 304 307 293 284 272 258 300 288 296 316
167 90 76 67 53 31 9 348 337 332 327 319 313 307 308 308 310 305 302 289 302 285 309 308 308 314 311 271 205 245 275 284
122 108 88 56 37 9 356 337 323 308 303 297 294 291 291 298 295 311 310 308 314 321 309 291 299 295 309 303 251 237 229 244